This demonstration page uses our WeatherBlox Daily Observations layout. Learn more.

Left ArrowRight Arrow

Hourly Observations for December 6, 2021

Temp ( °F °C ) Dew Point ( °F °C ) Humidity (%) Winds ( mph kmh ) Pressure ( in mb ) Visibility ( mi km ) Precip ( " mm )
12:15 am 00:15 Partly Cloudy 28 -2.1 15 -9.6 57 57 NNW 20 31 30.35 1028 10 16 N/A
12:35 am 00:35 Partly Cloudy 28 -2.5 15 -9.5 59 59 NNW 20 31 30.36 1028 10 16 N/A
12:55 am 00:55 Clear 28 -2.5 15 -9.3 60 60 NNW 14 22 30.36 1028 10 16 N/A
1:15 am 01:15 Clear 27 -2.6 15 -9.2 61 61 NNW 14 22 30.37 1029 10 16 N/A
1:35 am 01:35 Clear 27 -3 14 -10.1 58 58 NNW 20 31 30.38 1029 10 16 N/A
1:55 am 01:55 Clear 26 -3.5 14 -10.2 60 60 NW 13 20 30.40 1030 10 16 N/A
2:15 am 02:15 Clear 26 -3.3 14 -9.8 61 61 NNW 16 26 30.41 1030 10 16 N/A
2:35 am 02:35 Clear 27 -2.7 13 -10.8 54 54 N 21 33 30.42 1030 10 16 N/A
2:55 am 02:55 Partly Cloudy 26 -3.1 13 -10.5 57 57 NNW 14 22 30.42 1030 10 16 N/A
3:15 am 03:15 Clear 25 -3.9 13 -10.3 61 61 NNW 10 17 30.43 1030 10 16 N/A
3:35 am 03:35 Partly Cloudy 23 -4.8 14 -10.2 66 66 NW 7 11 30.44 1031 10 16 N/A
3:55 am 03:55 Partly Cloudy 19 -7 12 -11.3 72 72 W 6 9 30.47 1032 10 16 N/A
4:15 am 04:15 Partly Cloudy 19 -7.3 12 -10.9 76 76 W 7 11 30.47 1032 10 16 N/A
4:35 am 04:35 Clear 18 -7.8 12 -11 78 78 NW 9 15 30.47 1032 10 16 N/A
4:55 am 04:55 Clear 22 -5.5 14 -9.8 72 72 NW 14 22 30.45 1031 10 16 N/A
5:15 am 05:15 Clear 20 -6.7 13 -10.3 76 76 WNW 9 15 30.48 1032 10 16 N/A
5:35 am 05:35 Clear 20 -6.9 13 -10.4 76 76 NNW 12 19 30.47 1032 10 16 N/A
5:55 am 05:55 Clear 19 -7 13 -10.4 77 77 NW 9 15 30.48 1032 10 16 N/A
6:15 am 06:15 Clear 18 -7.7 13 -10.7 79 79 NW 9 15 30.50 1033 10 16 N/A
6:35 am 06:35 Clear 15 -9.5 11 -11.8 84 84 WNW 7 11 30.52 1033 10 16 N/A
6:55 am 06:55 Clear 13 -10.7 9 -12.7 85 85 WNW 6 9 30.53 1034 10 16 N/A
7:15 am 07:15 Clear 13 -10.3 10 -12.5 84 84 NNW 9 15 30.53 1034 10 16 N/A
7:35 am 07:35 Clear 14 -10.1 10 -12.5 83 83 NW 8 13 30.53 1034 10 16 N/A
7:55 am 07:55 Sunny 15 -9.6 10 -12.4 80 80 NNW 8 13 30.53 1034 10 16 N/A
8:15 am 08:15 Sunny 15 -9.4 10 -12.4 79 79 NW 5 7 30.54 1034 10 16 N/A
8:35 am 08:35 Sunny 16 -9 10 -12 79 79 WNW 6 9 30.54 1034 10 16 N/A
8:55 am 08:55 Sunny 17 -8.1 11 -11.5 77 77 WNW 7 11 30.54 1034 10 16 N/A
9:15 am 09:15 Sunny 18 -7.8 10 -12.1 72 72 NW 9 15 30.55 1035 10 16 N/A
9:35 am 09:35 Sunny 19 -7.5 9 -12.8 66 66 NNW 7 11 30.56 1035 10 16 N/A
9:55 am 09:55 Sunny 19 -7.3 8 -13.1 64 64 N 8 13 30.56 1035 10 16 N/A
10:15 am 10:15 Sunny 20 -6.8 10 -12.5 64 64 NW 8 13 30.56 1035 10 16 N/A
10:35 am 10:35 Sunny 20 -6.6 9 -12.7 62 62 NW 8 13 30.57 1035 10 16 N/A
10:55 am 10:55 Sunny 20 -6.4 9 -12.6 62 62 NW 9 15 30.55 1035 10 16 0.01 0.25
11:15 am 11:15 Sunny 22 -5.7 9 -12.6 59 59 NW 9 15 30.55 1034 10 16 N/A
11:35 am 11:35 Sunny 22 -5.7 9 -12.9 57 57 NW 3 6 30.55 1034 10 16 N/A
11:55 am 11:55 Sunny 23 -5.2 9 -12.6 56 56 W 5 7 30.51 1033 10 16 N/A
12:15 pm 12:15 Sunny 23 -5 9 -12.8 55 55 N N/A 30.50 1033 10 16 N/A
12:35 pm 12:35 Sunny 25 -4.1 9 -12.7 52 52 WNW 5 7 30.47 1032 10 16 N/A
12:55 pm 12:55 Sunny 25 -4 8 -13.6 48 48 N N/A 30.46 1031 10 16 N/A
1:15 pm 13:15 Sunny 26 -3.6 8 -13.3 47 47 N N/A 30.42 1030 10 16 N/A
1:35 pm 13:35 Sunny 26 -3.3 8 -13.1 47 47 N N/A 30.40 1030 10 16 N/A
1:55 pm 13:55 Sunny 27 -2.7 9 -13 45 45 N N/A 30.39 1029 10 16 N/A
2:15 pm 14:15 Sunny 28 -2.4 9 -12.7 45 45 ESE 3 6 30.37 1029 10 16 N/A
2:35 pm 14:35 Sunny 28 -2 9 -12.6 45 45 SSW 5 7 30.35 1028 10 16 N/A
2:55 pm 14:55 Sunny 28 -2.1 10 -12.5 45 45 N N/A 30.33 1027 10 16 N/A
3:15 pm 15:15 Sunny 28 -2.2 10 -12.4 46 46 SSE 9 15 30.32 1027 10 16 N/A
3:35 pm 15:35 Sunny 28 -2.3 10 -12.5 46 46 SSE 9 15 30.31 1026 10 16 N/A
3:55 pm 15:55 Sunny 28 -2.1 10 -12.4 46 46 SSE 7 11 30.30 1026 10 16 N/A
4:15 pm 16:15 Sunny 28 -2.1 10 -12.5 45 45 SSE 9 15 30.29 1026 10 16 N/A
4:35 pm 16:35 Sunny 28 -2.1 10 -12 47 47 S 9 15 30.29 1026 10 16 N/A
4:55 pm 16:55 Sunny 28 -2.5 10 -12 48 48 S 9 15 30.28 1025 10 16 N/A
5:15 pm 17:15 Clear 27 -3 10 -12 50 50 S 9 15 30.27 1025 10 16 N/A
5:35 pm 17:35 Clear 26 -3.3 10 -12.2 51 51 S 10 17 30.27 1025 10 16 N/A
5:55 pm 17:55 Clear 26 -3.6 9 -12.7 50 50 SSE 10 17 30.26 1025 10 16 N/A
6:15 pm 18:15 Partly Cloudy 25 -4 9 -12.7 51 51 SSE 10 17 30.28 1025 10 16 N/A
6:35 pm 18:35 Partly Cloudy 24 -4.3 9 -12.9 52 52 SSE 12 19 30.26 1025 10 16 N/A
6:55 pm 18:55 Mostly Cloudy 24 -4.2 9 -13 51 51 SSE 13 20 30.24 1024 10 16 N/A
7:15 pm 19:15 Cloudy 25 -4 10 -12.3 53 53 SSE 14 22 30.24 1024 10 16 N/A
7:35 pm 19:35 Cloudy 25 -4 10 -12.5 52 52 SSE 14 22 30.21 1023 10 16 N/A
7:55 pm 19:55 Cloudy 25 -3.8 10 -12.5 51 51 SSE 14 22 30.20 1023 10 16 N/A
8:15 pm 20:15 Cloudy 26 -3.6 10 -12.3 51 51 SSE 15 24 30.19 1022 10 16 N/A
8:35 pm 20:35 Cloudy 26 -3.5 10 -12.5 50 50 SSE 16 26 30.19 1022 10 16 N/A
8:55 pm 20:55 Cloudy 26 -3.5 10 -12.5 50 50 SSE 15 24 30.18 1022 10 16 N/A
9:15 pm 21:15 Cloudy 26 -3.5 10 -12 52 52 SSE 12 19 30.17 1022 10 16 N/A
9:35 pm 21:35 Mostly Cloudy 27 -3 11 -11.8 51 51 S 15 24 30.16 1021 10 16 N/A
9:55 pm 21:55 Mostly Cloudy 27 -2.8 11 -11.6 51 51 S 17 28 30.16 1021 10 16 N/A
10:15 pm 22:15 Partly Cloudy 27 -2.7 12 -11.3 52 52 S 16 26 30.13 1020 10 16 N/A
10:35 pm 22:35 Partly Cloudy 27 -2.6 12 -11.1 52 52 S 17 28 30.12 1020 10 16 N/A
10:55 pm 22:55 Mostly Cloudy 27 -2.6 13 -10.8 54 54 S 16 26 30.11 1020 10 16 N/A
11:15 pm 23:15 Cloudy 28 -2.5 13 -10.5 55 55 S 16 26 30.11 1020 10 16 N/A
11:35 pm 23:35 Cloudy 28 -2.1 14 -10.2 54 54 S 16 26 30.10 1019 10 16 N/A
11:55 pm 23:55 Cloudy 28 -2 14 -10 55 55 S 18 30 30.09 1019 10 16 N/A

Powered by AerisWeather